Starlink 30865

operational
NORAD ID: 58226 Int'l Des: 2023-170 Owner: SPXS Country: US Constellation: starlink
LEOCIRCULAR

Starlink 30865について

説明を読み込み中...

リアルタイム位置

3D地球を読み込み中...

次回通過

高度履歴

Altitude vs Time

uPlot chart will show altitude changes over time

軌道要素

1 58226U 23170W 25258.15042970 .00000269 00000-0 35017-4 0 9993
2 58226 43.0024 58.7149 0001089 269.0346 91.0372 15.02534172104007
Epoch: Sep 15, 2025 • Age: 11 hours

現在のステータス

高度 568.9 km
速度 7.58 km/s
衛星直下点 -35.99°S, 78.63°E
打ち上げ日 Nov 4, 2023
運用期間 1.8 years
タイプ internet

技術仕様

分類 Payload
質量 730.00 kg
乾燥質量 700.00 kg
総質量 730.00 kg
長さ 0.30 m
直径 4.10 m
スパン 29.00 m
形状 Box + pan
製造者 SPXS
バスタイプ Starlink V2M
フェーズステータス In Orbit
所有者/国 SPXS/US

大規模コンステレーション

Loading constellations...